Time,TemperatureF,DewpointF,PressureIn,WindDirection,WindDirectionDegrees,WindSpeedMPH,WindSpeedGustMPH,Humidity,HourlyPrecipIn,Conditions,Clouds,dailyrainin,SoftwareType,DateUTC
2013-08-04 00:00:00,55.4,50.0,29.89,NW,308,16.0,20.0,82,0.00,,,0.00,meteohub,2013-08-04 04:00:00,
2013-08-04 00:01:00,55.4,50.0,29.89,NW,321,9.0,20.0,82,0.00,,,0.00,meteohub,2013-08-04 04:01:00,
2013-08-04 00:02:00,55.2,49.8,29.89,North,349,9.0,20.0,82,0.00,,,0.00,meteohub,2013-08-04 04:02:00,
2013-08-04 00:03:00,55.2,49.8,29.89,NW,323,8.0,20.0,82,0.00,,,0.00,meteohub,2013-08-04 04:03:00,
2013-08-04 00:08:00,55.2,49.8,29.89,NW,321,18.0,20.0,82,0.00,,,0.00,meteohub,2013-08-04 04:08:00,
2013-08-04 00:13:00,55.2,49.5,29.88,NW,318,8.0,21.0,81,0.00,,,0.00,meteohub,2013-08-04 04:13:00,
2013-08-04 00:18:00,55.2,49.1,29.88,West,267,10.0,21.0,80,0.00,,,0.00,meteohub,2013-08-04 04:18:00,
2013-08-04 00:23:00,55.4,48.7,29.88,NNW,333,10.0,21.0,78,0.00,,,0.00,meteohub,2013-08-04 04:23:00,
2013-08-04 00:29:00,55.6,48.6,29.89,WSW,258,18.0,21.0,77,0.00,,,0.00,meteohub,2013-08-04 04:29:00,
2013-08-04 00:34:00,55.6,47.8,29.89,NNW,344,11.0,22.0,75,0.00,,,0.00,meteohub,2013-08-04 04:34:00,
2013-08-04 00:39:00,55.6,47.5,29.88,NW,319,10.0,22.0,74,0.00,,,0.00,meteohub,2013-08-04 04:39:00,
2013-08-04 00:44:00,55.6,47.1,29.88,WSW,238,7.0,22.0,73,0.00,,,0.00,meteohub,2013-08-04 04:44:00,
2013-08-04 00:49:00,55.6,47.1,29.88,NW,314,18.0,21.0,73,0.00,,,0.00,meteohub,2013-08-04 04:49:00,
2013-08-04 00:55:00,55.4,46.9,29.88,NW,306,6.0,20.0,73,0.00,,,0.00,meteohub,2013-08-04 04:55:00,
2013-08-04 01:00:00,55.4,46.9,29.89,WNW,286,1.0,20.0,73,0.00,,,0.00,meteohub,2013-08-04 05:00:00,
2013-08-04 01:05:00,55.2,46.8,29.89,WNW,302,9.0,19.0,73,0.00,,,0.00,meteohub,2013-08-04 05:05:00,
2013-08-04 01:10:00,55.2,46.8,29.89,NW,313,14.0,19.0,73,0.00,,,0.00,meteohub,2013-08-04 05:10:00,
2013-08-04 01:15:00,55.2,46.4,29.89,NW,307,9.0,16.0,72,0.00,,,0.00,meteohub,2013-08-04 05:15:00,
2013-08-04 01:20:00,55.0,46.6,29.88,NNW,329,11.0,16.0,73,0.00,,,0.00,meteohub,2013-08-04 05:20:00,
2013-08-04 01:25:00,55.0,46.6,29.88,WNW,300,8.0,16.0,73,0.00,,,0.00,meteohub,2013-08-04 05:25:00,
2013-08-04 01:30:00,55.0,46.6,29.88,NW,323,14.0,16.0,73,0.00,,,0.00,meteohub,2013-08-04 05:30:00,
2013-08-04 01:36:00,55.2,46.8,29.89,NW,315,9.0,16.0,73,0.00,,,0.00,meteohub,2013-08-04 05:36:00,
2013-08-04 01:41:00,55.0,46.6,29.89,NNW,334,6.0,15.0,73,0.00,,,0.00,meteohub,2013-08-04 05:41:00,
2013-08-04 01:46:00,55.0,46.6,29.89,NW,315,6.0,15.0,73,0.00,,,0.00,meteohub,2013-08-04 05:46:00,
2013-08-04 01:51:00,55.0,46.6,29.89,NW,311,18.0,18.0,73,0.00,,,0.00,meteohub,2013-08-04 05:51:00,
2013-08-04 01:56:00,55.0,46.6,29.89,NW,319,9.0,19.0,73,0.00,,,0.00,meteohub,2013-08-04 05:56:00,
2013-08-04 02:01:00,55.0,46.9,29.89,NNW,342,9.0,19.0,74,0.00,,,0.00,meteohub,2013-08-04 06:01:00,
2013-08-04 02:06:00,55.0,46.9,29.89,NNW,329,9.0,19.0,74,0.00,,,0.00,meteohub,2013-08-04 06:06:00,
2013-08-04 02:12:00,55.0,46.9,29.89,WNW,294,13.0,19.0,74,0.00,,,0.00,meteohub,2013-08-04 06:12:00,
2013-08-04 02:17:00,55.2,46.8,29.89,West,277,5.0,19.0,73,0.00,,,0.00,meteohub,2013-08-04 06:17:00,
2013-08-04 02:22:00,55.2,46.8,29.89,West,277,11.0,19.0,73,0.00,,,0.00,meteohub,2013-08-04 06:22:00,
2013-08-04 02:27:00,55.2,47.1,29.89,NW,325,11.0,19.0,74,0.00,,,0.00,meteohub,2013-08-04 06:27:00,
2013-08-04 02:32:00,55.2,47.1,29.89,WNW,291,5.0,19.0,74,0.00,,,0.00,meteohub,2013-08-04 06:32:00,
2013-08-04 02:38:00,55.4,46.9,29.89,West,281,12.0,20.0,73,0.00,,,0.00,meteohub,2013-08-04 06:38:00,
2013-08-04 02:43:00,55.4,47.3,29.89,SSW,213,8.0,20.0,74,0.00,,,0.00,meteohub,2013-08-04 06:43:00,
2013-08-04 02:48:00,55.2,47.1,29.89,WNW,303,5.0,21.0,74,0.00,,,0.00,meteohub,2013-08-04 06:48:00,
2013-08-04 02:53:00,55.2,47.5,29.88,WNW,295,9.0,21.0,75,0.00,,,0.00,meteohub,2013-08-04 06:53:00,
2013-08-04 02:59:00,55.0,47.7,29.88,West,263,6.0,20.0,76,0.00,,,0.00,meteohub,2013-08-04 06:59:00,
2013-08-04 03:04:00,55.0,47.7,29.88,NW,307,16.0,16.0,76,0.00,,,0.00,meteohub,2013-08-04 07:04:00,
2013-08-04 03:09:00,55.2,47.8,29.88,NW,311,7.0,16.0,76,0.00,,,0.00,meteohub,2013-08-04 07:09:00,
2013-08-04 03:14:00,55.2,47.8,29.88,NNW,343,8.0,19.0,76,0.00,,,0.00,meteohub,2013-08-04 07:14:00,
2013-08-04 03:19:00,55.0,48.0,29.88,NNW,328,18.0,20.0,77,0.00,,,0.00,meteohub,2013-08-04 07:19:00,
2013-08-04 03:24:00,55.0,48.4,29.88,NW,320,12.0,20.0,78,0.00,,,0.00,meteohub,2013-08-04 07:24:00,
2013-08-04 03:30:00,55.0,48.4,29.88,WNW,300,7.0,19.0,78,0.00,,,0.00,meteohub,2013-08-04 07:30:00,
2013-08-04 03:35:00,54.9,48.2,29.88,NW,321,10.0,19.0,78,0.00,,,0.00,meteohub,2013-08-04 07:35:00,
2013-08-04 03:40:00,54.9,48.6,29.88,WNW,290,8.0,19.0,79,0.00,,,0.00,meteohub,2013-08-04 07:40:00,
2013-08-04 03:45:00,54.7,48.4,29.88,West,281,10.0,19.0,79,0.00,,,0.00,meteohub,2013-08-04 07:45:00,
2013-08-04 03:50:00,54.7,48.4,29.87,NNW,339,8.0,21.0,79,0.00,,,0.00,meteohub,2013-08-04 07:50:00,
2013-08-04 03:56:00,54.7,48.4,29.87,North,355,9.0,21.0,79,0.00,,,0.00,meteohub,2013-08-04 07:56:00,
2013-08-04 04:01:00,54.7,48.6,29.87,NW,325,9.0,21.0,80,0.00,,,0.00,meteohub,2013-08-04 08:01:00,
2013-08-04 04:06:00,54.5,48.4,29.88,NW,307,8.0,20.0,80,0.00,,,0.00,meteohub,2013-08-04 08:06:00,
2013-08-04 04:11:00,54.3,48.2,29.88,NW,315,9.0,15.0,80,0.00,,,0.00,meteohub,2013-08-04 08:11:00,
2013-08-04 04:17:00,54.3,48.2,29.88,WNW,298,14.0,16.0,80,0.00,,,0.00,meteohub,2013-08-04 08:17:00,
2013-08-04 04:22:00,54.5,48.7,29.88,West,273,8.0,20.0,81,0.00,,,0.00,meteohub,2013-08-04 08:22:00,
2013-08-04 04:27:00,54.3,48.6,29.88,West,279,5.0,20.0,81,0.00,,,0.00,meteohub,2013-08-04 08:27:00,
2013-08-04 04:32:00,54.3,48.6,29.88,WNW,286,5.0,18.0,81,0.00,,,0.00,meteohub,2013-08-04 08:32:00,
2013-08-04 04:37:00,54.3,48.6,29.88,NNW,327,10.0,13.0,81,0.00,,,0.00,meteohub,2013-08-04 08:37:00,
2013-08-04 04:42:00,54.1,48.7,29.88,NW,317,10.0,13.0,82,0.00,,,0.00,meteohub,2013-08-04 08:42:00,
2013-08-04 04:47:00,54.1,48.7,29.88,NW,318,7.0,15.0,82,0.00,,,0.00,meteohub,2013-08-04 08:47:00,
2013-08-04 04:52:00,54.1,49.1,29.88,North,5,5.0,15.0,83,0.00,,,0.00,meteohub,2013-08-04 08:52:00,
2013-08-04 04:57:00,54.0,48.9,29.88,NNW,344,6.0,15.0,83,0.00,,,0.00,meteohub,2013-08-04 08:57:00,
2013-08-04 05:03:00,54.0,48.9,29.88,WNW,293,6.0,15.0,83,0.00,,,0.00,meteohub,2013-08-04 09:03:00,
2013-08-04 05:07:00,54.0,48.9,29.88,WNW,290,7.0,15.0,83,0.00,,,0.00,meteohub,2013-08-04 09:07:00,
2013-08-04 05:12:00,54.0,48.9,29.88,NNW,342,8.0,15.0,83,0.00,,,0.00,meteohub,2013-08-04 09:12:00,
2013-08-04 05:17:00,53.8,48.7,29.88,WNW,294,2.0,14.0,83,0.00,,,0.00,meteohub,2013-08-04 09:17:00,
2013-08-04 05:22:00,53.8,48.7,29.88,WNW,298,6.0,14.0,83,0.00,,,0.00,meteohub,2013-08-04 09:22:00,
2013-08-04 05:27:00,53.4,48.7,29.88,NW,311,8.0,14.0,84,0.00,,,0.00,meteohub,2013-08-04 09:27:00,
2013-08-04 05:33:00,53.2,48.9,29.88,NW,316,8.0,12.0,85,0.00,,,0.00,meteohub,2013-08-04 09:33:00,
2013-08-04 05:38:00,53.2,48.9,29.88,NW,319,11.0,11.0,85,0.00,,,0.00,meteohub,2013-08-04 09:38:00,
2013-08-04 05:43:00,53.4,49.3,29.88,NW,319,9.0,11.0,86,0.00,,,0.00,meteohub,2013-08-04 09:43:00,
2013-08-04 05:48:00,53.4,49.6,29.89,NW,321,10.0,14.0,87,0.00,,,0.00,meteohub,2013-08-04 09:48:00,
2013-08-04 05:53:00,53.2,49.5,29.89,NW,305,2.0,14.0,87,0.00,,,0.00,meteohub,2013-08-04 09:53:00,
2013-08-04 05:58:00,53.2,49.5,29.89,NNW,330,9.0,13.0,87,0.00,,,0.00,meteohub,2013-08-04 09:58:00,
2013-08-04 06:03:00,53.1,49.6,29.89,NW,315,11.0,13.0,88,0.00,,,0.00,meteohub,2013-08-04 10:03:00,
2013-08-04 06:09:00,53.1,49.6,29.89,NNW,333,10.0,12.0,88,0.00,,,0.00,meteohub,2013-08-04 10:09:00,
2013-08-04 06:14:00,53.1,49.6,29.89,WNW,289,5.0,12.0,88,0.00,,,0.00,meteohub,2013-08-04 10:14:00,
2013-08-04 06:19:00,52.9,49.5,29.89,WNW,290,4.0,14.0,88,0.00,,,0.00,meteohub,2013-08-04 10:19:00,
2013-08-04 06:24:00,52.9,49.5,29.89,WSW,256,5.0,14.0,88,0.00,,,0.00,meteohub,2013-08-04 10:24:00,
2013-08-04 06:29:00,52.9,49.6,29.89,NW,307,5.0,14.0,89,0.00,,,0.00,meteohub,2013-08-04 10:29:00,
2013-08-04 06:34:00,52.9,49.5,29.89,NNW,327,8.0,13.0,88,0.00,,,0.00,meteohub,2013-08-04 10:34:00,
2013-08-04 06:40:00,53.1,49.8,29.89,WNW,301,7.0,13.0,89,0.00,,,0.00,meteohub,2013-08-04 10:40:00,
2013-08-04 06:45:00,52.9,49.6,29.89,West,269,4.0,12.0,89,0.00,,,0.00,meteohub,2013-08-04 10:45:00,
2013-08-04 06:50:00,52.9,49.6,29.89,NW,315,11.0,13.0,89,0.00,,,0.00,meteohub,2013-08-04 10:50:00,
2013-08-04 06:56:00,52.9,50.0,29.89,WSW,248,10.0,13.0,90,0.00,,,0.00,meteohub,2013-08-04 10:56:00,
2013-08-04 07:01:00,52.9,50.0,29.89,WNW,292,6.0,13.0,90,0.00,,,0.00,meteohub,2013-08-04 11:01:00,
2013-08-04 07:06:00,52.7,49.8,29.89,NNE,12,5.0,15.0,90,0.00,,,0.00,meteohub,2013-08-04 11:06:00,
2013-08-04 07:11:00,52.5,50.0,29.89,NW,305,2.0,15.0,91,0.00,,,0.00,meteohub,2013-08-04 11:11:00,
2013-08-04 07:16:00,52.5,50.2,29.89,NW,323,11.0,15.0,92,0.00,,,0.00,meteohub,2013-08-04 11:16:00,
2013-08-04 07:22:00,52.7,50.7,29.89,NW,319,6.0,14.0,93,0.00,,,0.00,meteohub,2013-08-04 11:22:00,
2013-08-04 07:27:00,52.9,50.9,29.89,NW,317,6.0,14.0,93,0.00,,,0.00,meteohub,2013-08-04 11:27:00,
2013-08-04 07:32:00,52.9,50.9,29.89,West,281,11.0,14.0,93,0.00,,,0.00,meteohub,2013-08-04 11:32:00,
2013-08-04 07:38:00,53.1,51.1,29.89,NW,313,9.0,13.0,93,0.00,,,0.00,meteohub,2013-08-04 11:38:00,
2013-08-04 07:43:00,52.9,50.9,29.89,NNW,328,8.0,14.0,93,0.00,,,0.00,meteohub,2013-08-04 11:43:00,
2013-08-04 07:48:00,52.9,51.3,29.90,NNW,333,6.0,15.0,94,0.00,,,0.00,meteohub,2013-08-04 11:48:00,
2013-08-04 07:53:00,52.9,51.3,29.90,WNW,294,6.0,15.0,94,0.00,,,0.00,meteohub,2013-08-04 11:53:00,
2013-08-04 07:58:00,52.9,50.9,29.89,West,281,6.0,15.0,93,0.00,,,0.00,meteohub,2013-08-04 11:58:00,
2013-08-04 08:04:00,53.1,51.1,29.90,NNW,333,3.0,14.0,93,0.00,,,0.00,meteohub,2013-08-04 12:04:00,
2013-08-04 08:09:00,53.1,50.7,29.89,WNW,292,3.0,14.0,92,0.00,,,0.00,meteohub,2013-08-04 12:09:00,
2013-08-04 08:14:00,52.9,50.4,29.89,WNW,300,3.0,14.0,91,0.00,,,0.00,meteohub,2013-08-04 12:14:00,
2013-08-04 08:19:00,52.5,50.2,29.90,NW,315,7.0,13.0,92,0.00,,,0.00,meteohub,2013-08-04 12:19:00,
2013-08-04 08:24:00,52.3,50.0,29.90,WNW,291,8.0,12.0,92,0.00,,,0.00,meteohub,2013-08-04 12:24:00,
2013-08-04 08:29:00,52.3,50.4,29.90,North,355,6.0,15.0,93,0.00,,,0.00,meteohub,2013-08-04 12:29:00,
2013-08-04 08:35:00,52.3,50.4,29.90,WNW,298,6.0,15.0,93,0.00,,,0.00,meteohub,2013-08-04 12:35:00,
2013-08-04 08:40:00,52.3,50.0,29.90,NNW,334,8.0,12.0,92,0.00,,,0.00,meteohub,2013-08-04 12:40:00,
2013-08-04 08:46:00,52.3,50.0,29.90,NNW,344,11.0,15.0,92,0.00,,,0.00,meteohub,2013-08-04 12:46:00,
2013-08-04 08:50:00,52.2,50.2,29.90,NNW,330,9.0,15.0,93,0.00,,,0.00,meteohub,2013-08-04 12:50:00,
2013-08-04 08:56:00,52.2,50.2,29.90,WNW,285,8.0,15.0,93,0.00,,,0.00,meteohub,2013-08-04 12:56:00,
2013-08-04 09:01:00,52.3,50.4,29.90,NW,318,10.0,14.0,93,0.00,,,0.00,meteohub,2013-08-04 13:01:00,
2013-08-04 09:06:00,52.3,50.4,29.90,North,355,11.0,14.0,93,0.00,,,0.00,meteohub,2013-08-04 13:06:00,
2013-08-04 09:11:00,52.3,50.4,29.90,NW,316,6.0,16.0,93,0.00,,,0.00,meteohub,2013-08-04 13:11:00,
2013-08-04 09:17:00,52.3,50.4,29.90,NW,306,8.0,16.0,93,0.00,,,0.00,meteohub,2013-08-04 13:17:00,
2013-08-04 09:22:00,52.5,50.5,29.90,West,273,5.0,18.0,93,0.00,,,0.00,meteohub,2013-08-04 13:22:00,
2013-08-04 09:26:00,52.9,50.5,29.90,NW,323,5.0,18.0,92,0.00,,,0.00,meteohub,2013-08-04 13:26:00,
2013-08-04 09:32:00,53.1,50.5,29.90,NW,315,11.0,13.0,91,0.00,,,0.00,meteohub,2013-08-04 13:32:00,
2013-08-04 09:37:00,53.2,50.0,29.90,WNW,295,9.0,19.0,89,0.00,,,0.00,meteohub,2013-08-04 13:37:00,
2013-08-04 09:42:00,54.1,50.9,29.91,West,273,5.0,19.0,89,0.00,,,0.00,meteohub,2013-08-04 13:42:00,
2013-08-04 09:47:00,54.7,50.5,29.91,NW,304,5.0,18.0,86,0.00,,,0.00,meteohub,2013-08-04 13:47:00,
2013-08-04 09:53:00,54.3,49.8,29.91,SSE,167,5.0,15.0,85,0.00,,,0.00,meteohub,2013-08-04 13:53:00,
2013-08-04 09:58:00,54.3,49.6,29.91,WNW,294,13.0,16.0,84,0.00,,,0.00,meteohub,2013-08-04 13:58:00,
2013-08-04 10:03:00,54.7,50.5,29.91,WNW,293,8.0,16.0,86,0.00,,,0.00,meteohub,2013-08-04 14:03:00,
2013-08-04 10:08:00,54.7,50.2,29.91,West,260,9.0,16.0,85,0.00,,,0.00,meteohub,2013-08-04 14:08:00,
2013-08-04 10:13:00,54.9,50.7,29.91,WSW,246,6.0,14.0,86,0.00,,,0.00,meteohub,2013-08-04 14:13:00,
2013-08-04 10:18:00,55.2,50.7,29.91,West,262,7.0,13.0,85,0.00,,,0.00,meteohub,2013-08-04 14:18:00,
2013-08-04 10:23:00,54.9,50.4,29.92,West,274,9.0,12.0,85,0.00,,,0.00,meteohub,2013-08-04 14:23:00,
2013-08-04 10:29:00,54.5,50.0,29.92,NNW,341,4.0,13.0,85,0.00,,,0.00,meteohub,2013-08-04 14:29:00,
2013-08-04 10:33:00,54.7,50.5,29.92,NNW,330,6.0,14.0,86,0.00,,,0.00,meteohub,2013-08-04 14:33:00,
2013-08-04 10:39:00,54.9,50.4,29.92,NW,305,9.0,18.0,85,0.00,,,0.00,meteohub,2013-08-04 14:39:00,
2013-08-04 10:44:00,55.0,50.5,29.92,NW,313,7.0,18.0,85,0.00,,,0.00,meteohub,2013-08-04 14:44:00,
2013-08-04 10:49:00,55.6,50.9,29.92,NW,306,7.0,14.0,84,0.00,,,0.00,meteohub,2013-08-04 14:49:00,
2013-08-04 10:54:00,55.6,51.1,29.92,NW,314,7.0,13.0,85,0.00,,,0.00,meteohub,2013-08-04 14:54:00,
2013-08-04 11:00:00,56.1,50.7,29.92,West,271,7.0,15.0,82,0.00,,,0.00,meteohub,2013-08-04 15:00:00,
2013-08-04 11:07:00,56.5,51.4,29.93,NNW,329,11.0,16.0,83,0.00,,,0.00,meteohub,2013-08-04 15:07:00,
2013-08-04 11:12:00,56.7,51.3,29.92,NW,313,13.0,16.0,82,0.00,,,0.00,meteohub,2013-08-04 15:12:00,
2013-08-04 11:17:00,56.8,50.7,29.93,NNW,333,1.0,16.0,80,0.00,,,0.00,meteohub,2013-08-04 15:17:00,
2013-08-04 11:22:00,57.2,51.4,29.93,NW,305,10.0,16.0,81,0.00,,,0.00,meteohub,2013-08-04 15:22:00,
2013-08-04 11:27:00,57.0,51.3,29.92,WNW,295,11.0,16.0,81,0.00,,,0.00,meteohub,2013-08-04 15:27:00,
2013-08-04 11:32:00,57.7,51.3,29.92,West,277,5.0,21.0,79,0.00,,,0.00,meteohub,2013-08-04 15:32:00,
2013-08-04 11:37:00,58.5,51.6,29.92,NNW,342,6.0,21.0,78,0.00,,,0.00,meteohub,2013-08-04 15:37:00,
2013-08-04 11:42:00,58.5,52.0,29.92,NW,324,10.0,14.0,79,0.00,,,0.00,meteohub,2013-08-04 15:42:00,
2013-08-04 11:48:00,58.8,51.6,29.93,NW,326,4.0,14.0,77,0.00,,,0.00,meteohub,2013-08-04 15:48:00,
2013-08-04 11:53:00,59.5,52.0,29.92,NNW,328,9.0,14.0,76,0.00,,,0.00,meteohub,2013-08-04 15:53:00,
2013-08-04 11:58:00,59.7,52.2,29.92,West,275,6.0,14.0,76,0.00,,,0.00,meteohub,2013-08-04 15:58:00,
2013-08-04 12:03:00,59.7,51.4,29.92,West,271,9.0,13.0,74,0.00,,,0.00,meteohub,2013-08-04 16:03:00,
2013-08-04 12:09:00,59.9,51.6,29.92,NW,318,5.0,13.0,74,0.00,,,0.00,meteohub,2013-08-04 16:09:00,
2013-08-04 12:14:00,59.0,50.7,29.92,WNW,300,5.0,13.0,74,0.00,,,0.00,meteohub,2013-08-04 16:14:00,
2013-08-04 12:19:00,58.8,52.0,29.92,WNW,286,13.0,13.0,78,0.00,,,0.00,meteohub,2013-08-04 16:19:00,
2013-08-04 12:24:00,59.7,51.4,29.92,WSW,257,7.0,10.0,74,0.00,,,0.00,meteohub,2013-08-04 16:24:00,
2013-08-04 12:30:00,60.6,52.3,29.91,WNW,300,2.0,13.0,74,0.00,,,0.00,meteohub,2013-08-04 16:30:00,
2013-08-04 12:35:00,61.9,52.7,29.91,WNW,302,5.0,12.0,72,0.00,,,0.00,meteohub,2013-08-04 16:35:00,
2013-08-04 12:40:00,62.1,52.2,29.91,NNW,332,9.0,12.0,70,0.00,,,0.00,meteohub,2013-08-04 16:40:00,
2013-08-04 12:45:00,62.1,52.9,29.91,WNW,300,1.0,12.0,72,0.00,,,0.00,meteohub,2013-08-04 16:45:00,
2013-08-04 12:50:00,62.2,52.0,29.91,WNW,302,1.0,14.0,69,0.00,,,0.00,meteohub,2013-08-04 16:50:00,
2013-08-04 12:56:00,62.2,52.3,29.90,WNW,295,9.0,14.0,70,0.00,,,0.00,meteohub,2013-08-04 16:56:00,
2013-08-04 13:01:00,62.1,50.9,29.90,WSW,254,8.0,14.0,67,0.00,,,0.00,meteohub,2013-08-04 17:01:00,
2013-08-04 13:06:00,62.2,52.3,29.90,NNW,343,8.0,14.0,70,0.00,,,0.00,meteohub,2013-08-04 17:06:00,
2013-08-04 13:11:00,62.8,51.6,29.90,West,273,5.0,14.0,67,0.00,,,0.00,meteohub,2013-08-04 17:11:00,
2013-08-04 13:16:00,62.6,52.0,29.90,NW,310,7.0,14.0,68,0.00,,,0.00,meteohub,2013-08-04 17:16:00,
2013-08-04 13:22:00,63.1,51.6,29.90,NW,315,8.0,14.0,66,0.00,,,0.00,meteohub,2013-08-04 17:22:00,
2013-08-04 13:27:00,61.7,51.4,29.90,West,281,2.0,16.0,69,0.00,,,0.00,meteohub,2013-08-04 17:27:00,
2013-08-04 13:32:00,60.6,51.6,29.91,WNW,292,7.0,18.0,72,0.00,,,0.00,meteohub,2013-08-04 17:32:00,
2013-08-04 13:38:00,59.2,51.3,29.91,North,0,7.0,18.0,75,0.00,,,0.00,meteohub,2013-08-04 17:38:00,
2013-08-04 13:42:00,57.7,50.2,29.91,West,265,9.0,18.0,76,0.00,,,0.00,meteohub,2013-08-04 17:42:00,
2013-08-04 13:48:00,55.8,51.1,29.91,SW,230,4.0,18.0,84,0.00,,,0.00,meteohub,2013-08-04 17:48:00,
2013-08-04 13:53:00,53.1,49.6,29.91,West,265,11.0,20.0,88,0.00,,,0.00,meteohub,2013-08-04 17:53:00,
2013-08-04 13:58:00,52.3,49.3,29.91,North,355,18.0,20.0,89,0.01,,,0.01,meteohub,2013-08-04 17:58:00,
2013-08-04 14:04:00,52.9,50.0,29.91,WNW,301,15.0,20.0,90,0.01,,,0.01,meteohub,2013-08-04 18:04:00,
2013-08-04 14:09:00,53.8,50.0,29.90,NW,309,21.0,21.0,87,0.01,,,0.01,meteohub,2013-08-04 18:09:00,
2013-08-04 14:14:00,54.5,49.5,29.90,NNW,329,10.0,22.0,83,0.01,,,0.01,meteohub,2013-08-04 18:14:00,
2013-08-04 14:19:00,54.3,49.8,29.90,NNE,32,14.0,24.0,85,0.01,,,0.01,meteohub,2013-08-04 18:19:00,
2013-08-04 14:24:00,54.1,50.0,29.90,WNW,299,7.0,24.0,86,0.01,,,0.01,meteohub,2013-08-04 18:24:00,
2013-08-04 14:30:00,55.2,51.1,29.91,NW,315,13.0,24.0,86,0.01,,,0.01,meteohub,2013-08-04 18:30:00,
2013-08-04 14:35:00,56.1,51.1,29.91,WNW,282,15.0,21.0,83,0.01,,,0.01,meteohub,2013-08-04 18:35:00,
2013-08-04 14:40:00,56.7,50.9,29.91,NW,320,14.0,19.0,81,0.01,,,0.01,meteohub,2013-08-04 18:40:00,
2013-08-04 14:45:00,57.4,50.5,29.91,WNW,287,12.0,21.0,78,0.01,,,0.01,meteohub,2013-08-04 18:45:00,
2013-08-04 14:51:00,57.6,50.0,29.90,WNW,289,16.0,21.0,76,0.01,,,0.01,meteohub,2013-08-04 18:51:00,
2013-08-04 14:56:00,57.2,48.9,29.90,NW,311,9.0,21.0,74,0.00,,,0.01,meteohub,2013-08-04 18:56:00,
2013-08-04 15:01:00,57.6,50.0,29.91,North,9,13.0,21.0,76,0.00,,,0.01,meteohub,2013-08-04 19:01:00,
2013-08-04 15:06:00,58.5,50.2,29.90,North,355,7.0,28.0,74,0.00,,,0.01,meteohub,2013-08-04 19:06:00,
2013-08-04 15:11:00,59.2,50.2,29.91,NW,315,5.0,28.0,72,0.00,,,0.01,meteohub,2013-08-04 19:11:00,
2013-08-04 15:17:00,59.2,50.2,29.90,WNW,299,7.0,21.0,72,0.00,,,0.01,meteohub,2013-08-04 19:17:00,
2013-08-04 15:22:00,60.1,50.7,29.90,WSW,255,7.0,21.0,71,0.00,,,0.01,meteohub,2013-08-04 19:22:00,
2013-08-04 15:27:00,60.3,50.9,29.90,WNW,301,13.0,16.0,71,0.00,,,0.01,meteohub,2013-08-04 19:27:00,
2013-08-04 15:31:00,60.3,51.3,29.90,SSW,212,7.0,18.0,72,0.00,,,0.01,meteohub,2013-08-04 19:31:00,
2013-08-04 15:37:00,60.6,50.7,29.91,NW,309,7.0,18.0,70,0.00,,,0.01,meteohub,2013-08-04 19:37:00,
2013-08-04 15:42:00,60.6,51.1,29.91,West,259,6.0,16.0,71,0.00,,,0.01,meteohub,2013-08-04 19:42:00,
2013-08-04 15:47:00,61.0,50.0,29.90,North,355,14.0,16.0,67,0.00,,,0.01,meteohub,2013-08-04 19:47:00,
2013-08-04 15:51:00,60.8,50.5,29.90,NNW,345,8.0,19.0,69,0.00,,,0.01,meteohub,2013-08-04 19:51:00,
2013-08-04 15:57:00,60.4,51.4,29.90,NNW,327,15.0,19.0,72,0.00,,,0.01,meteohub,2013-08-04 19:57:00,
2013-08-04 16:02:00,60.4,51.1,29.90,NNW,340,13.0,19.0,71,0.00,,,0.01,meteohub,2013-08-04 20:02:00,
2013-08-04 16:08:00,60.6,47.1,29.90,West,269,10.0,20.0,61,0.00,,,0.01,meteohub,2013-08-04 20:08:00,
2013-08-04 16:13:00,60.8,47.7,29.90,NW,325,7.0,24.0,62,0.00,,,0.01,meteohub,2013-08-04 20:13:00,
2013-08-04 16:18:00,61.0,47.8,29.90,WNW,282,10.0,26.0,62,0.00,,,0.01,meteohub,2013-08-04 20:18:00,
2013-08-04 16:23:00,61.2,46.2,29.90,NW,304,11.0,26.0,58,0.00,,,0.01,meteohub,2013-08-04 20:23:00,
2013-08-04 16:28:00,61.3,47.8,29.90,NNW,329,7.0,26.0,61,0.00,,,0.01,meteohub,2013-08-04 20:28:00,
2013-08-04 16:34:00,61.3,47.3,29.90,WNW,299,7.0,21.0,60,0.00,,,0.01,meteohub,2013-08-04 20:34:00,
2013-08-04 16:39:00,61.3,47.8,29.91,WNW,295,12.0,21.0,61,0.00,,,0.01,meteohub,2013-08-04 20:39:00,
2013-08-04 16:44:00,61.3,48.2,29.91,WNW,283,9.0,21.0,62,0.00,,,0.01,meteohub,2013-08-04 20:44:00,
2013-08-04 16:49:00,61.2,47.1,29.91,NNW,331,10.0,22.0,60,0.00,,,0.01,meteohub,2013-08-04 20:49:00,
2013-08-04 16:54:00,61.2,48.0,29.91,West,260,7.0,22.0,62,0.00,,,0.01,meteohub,2013-08-04 20:54:00,
2013-08-04 17:00:00,61.3,47.3,29.91,NNW,336,13.0,22.0,60,0.00,,,0.01,meteohub,2013-08-04 21:00:00,
2013-08-04 17:05:00,61.2,47.7,29.91,North,10,19.0,20.0,61,0.00,,,0.01,meteohub,2013-08-04 21:05:00,
2013-08-04 17:10:00,61.2,48.0,29.91,NW,304,11.0,23.0,62,0.00,,,0.01,meteohub,2013-08-04 21:10:00,
2013-08-04 17:15:00,61.5,48.4,29.92,NW,323,10.0,23.0,62,0.00,,,0.01,meteohub,2013-08-04 21:15:00,
2013-08-04 17:20:00,61.2,47.7,29.91,WNW,290,7.0,23.0,61,0.00,,,0.01,meteohub,2013-08-04 21:20:00,
2013-08-04 17:26:00,61.2,47.1,29.91,NNW,333,12.0,23.0,60,0.00,,,0.01,meteohub,2013-08-04 21:26:00,
2013-08-04 17:30:00,60.8,48.2,29.92,West,281,10.0,23.0,63,0.00,,,0.01,meteohub,2013-08-04 21:30:00,
2013-08-04 17:36:00,60.4,47.8,29.92,WSW,246,9.0,22.0,63,0.00,,,0.01,meteohub,2013-08-04 21:36:00,
2013-08-04 17:41:00,60.6,49.3,29.92,WNW,295,12.0,19.0,66,0.00,,,0.01,meteohub,2013-08-04 21:41:00,
2013-08-04 17:47:00,60.6,48.4,29.92,WNW,285,15.0,19.0,64,0.00,,,0.01,meteohub,2013-08-04 21:47:00,
2013-08-04 17:49:00,60.4,47.8,29.92,NNW,329,12.0,19.0,63,0.00,,,0.01,meteohub,2013-08-04 21:49:00,
2013-08-04 17:54:00,60.4,47.8,29.92,West,273,1.0,20.0,63,0.00,,,0.01,meteohub,2013-08-04 21:54:00,
2013-08-04 18:00:00,60.6,48.4,29.92,NNW,340,7.0,20.0,64,0.00,,,0.01,meteohub,2013-08-04 22:00:00,
2013-08-04 18:05:00,60.8,48.6,29.92,West,261,9.0,16.0,64,0.00,,,0.01,meteohub,2013-08-04 22:05:00,
2013-08-04 18:10:00,60.1,48.2,29.92,NNW,338,10.0,16.0,65,0.00,,,0.01,meteohub,2013-08-04 22:10:00,
2013-08-04 18:15:00,59.2,48.6,29.93,WNW,294,10.0,21.0,68,0.00,,,0.01,meteohub,2013-08-04 22:15:00,
2013-08-04 18:20:00,58.8,48.2,29.93,West,279,5.0,21.0,68,0.00,,,0.01,meteohub,2013-08-04 22:20:00,
2013-08-04 18:26:00,58.3,48.6,29.93,NW,313,9.0,21.0,70,0.00,,,0.01,meteohub,2013-08-04 22:26:00,
2013-08-04 18:31:00,57.4,48.4,29.93,NW,317,14.0,19.0,72,0.00,,,0.01,meteohub,2013-08-04 22:31:00,
2013-08-04 18:36:00,57.0,48.0,29.93,North,355,7.0,19.0,72,0.00,,,0.01,meteohub,2013-08-04 22:36:00,
2013-08-04 18:41:00,57.7,48.7,29.93,NW,323,10.0,19.0,72,0.00,,,0.01,meteohub,2013-08-04 22:41:00,
2013-08-04 18:47:00,57.2,47.8,29.93,NW,314,8.0,19.0,71,0.00,,,0.01,meteohub,2013-08-04 22:47:00,
2013-08-04 18:52:00,56.8,47.8,29.94,NNW,348,9.0,19.0,72,0.00,,,0.01,meteohub,2013-08-04 22:52:00,
2013-08-04 18:57:00,56.7,47.7,29.93,West,263,6.0,18.0,72,0.00,,,0.01,meteohub,2013-08-04 22:57:00,
2013-08-04 19:02:00,56.7,48.4,29.94,NW,323,11.0,18.0,74,0.00,,,0.01,meteohub,2013-08-04 23:02:00,
2013-08-04 19:07:00,56.8,48.6,29.93,West,262,19.0,23.0,74,0.00,,,0.01,meteohub,2013-08-04 23:07:00,
2013-08-04 19:13:00,56.8,48.2,29.94,NW,313,10.0,23.0,73,0.00,,,0.01,meteohub,2013-08-04 23:13:00,
2013-08-04 19:18:00,56.5,47.5,29.94,NW,320,12.0,23.0,72,0.00,,,0.01,meteohub,2013-08-04 23:18:00,
2013-08-04 19:23:00,55.9,48.2,29.94,NW,306,9.0,26.0,75,0.00,,,0.01,meteohub,2013-08-04 23:23:00,
2013-08-04 19:28:00,55.8,47.7,29.94,NW,315,5.0,26.0,74,0.00,,,0.01,meteohub,2013-08-04 23:28:00,
2013-08-04 19:34:00,55.8,47.7,29.94,NNW,348,18.0,22.0,74,0.00,,,0.01,meteohub,2013-08-04 23:34:00,
2013-08-04 19:39:00,55.8,47.3,29.94,NW,317,14.0,22.0,73,0.00,,,0.01,meteohub,2013-08-04 23:39:00,
2013-08-04 19:44:00,55.8,47.7,29.94,WNW,302,10.0,23.0,74,0.00,,,0.01,meteohub,2013-08-04 23:44:00,
2013-08-04 19:49:00,55.6,47.8,29.95,NW,317,7.0,23.0,75,0.00,,,0.01,meteohub,2013-08-04 23:49:00,
2013-08-04 19:54:00,55.4,47.7,29.95,WNW,299,11.0,23.0,75,0.00,,,0.01,meteohub,2013-08-04 23:54:00,
2013-08-04 19:59:00,55.0,46.6,29.95,North,350,5.0,18.0,73,0.00,,,0.01,meteohub,2013-08-04 23:59:00,
2013-08-04 20:04:00,54.7,46.6,29.95,North,9,7.0,25.0,74,0.00,,,0.01,meteohub,2013-08-05 00:04:00,
2013-08-04 20:10:00,54.5,46.4,29.95,WNW,300,21.0,25.0,74,0.00,,,0.00,meteohub,2013-08-05 00:10:00,
2013-08-04 20:15:00,54.1,46.0,29.96,NW,319,5.0,24.0,74,0.00,,,0.00,meteohub,2013-08-05 00:15:00,
2013-08-04 20:20:00,54.0,46.9,29.96,NNW,340,8.0,21.0,77,0.00,,,0.00,meteohub,2013-08-05 00:20:00,
2013-08-04 20:25:00,53.6,46.6,29.96,NNW,334,10.0,15.0,77,0.00,,,0.00,meteohub,2013-08-05 00:25:00,
2013-08-04 20:30:00,53.4,46.8,29.96,NNE,32,8.0,13.0,78,0.00,,,0.00,meteohub,2013-08-05 00:30:00,
2013-08-04 20:36:00,53.2,46.6,29.96,NNW,328,5.0,13.0,78,0.00,,,0.00,meteohub,2013-08-05 00:36:00,
2013-08-04 20:41:00,53.2,46.9,29.96,WNW,289,5.0,16.0,79,0.00,,,0.00,meteohub,2013-08-05 00:41:00,
2013-08-04 20:46:00,53.1,47.1,29.97,WNW,292,11.0,19.0,80,0.00,,,0.00,meteohub,2013-08-05 00:46:00,
2013-08-04 20:51:00,52.9,46.9,29.97,WNW,296,6.0,19.0,80,0.00,,,0.00,meteohub,2013-08-05 00:51:00,
2013-08-04 20:56:00,52.5,46.9,29.97,West,267,7.0,19.0,81,0.00,,,0.00,meteohub,2013-08-05 00:56:00,
2013-08-04 21:02:00,52.5,46.9,29.97,NW,320,9.0,18.0,81,0.00,,,0.00,meteohub,2013-08-05 01:02:00,
2013-08-04 21:07:00,52.3,46.9,29.98,NW,326,11.0,16.0,82,0.00,,,0.00,meteohub,2013-08-05 01:07:00,
2013-08-04 21:13:00,52.3,46.9,29.98,NW,311,11.0,19.0,82,0.00,,,0.00,meteohub,2013-08-05 01:13:00,
2013-08-04 21:18:00,52.2,46.8,29.98,West,267,8.0,19.0,82,0.00,,,0.00,meteohub,2013-08-05 01:18:00,
2013-08-04 21:23:00,52.2,47.1,29.98,NW,319,11.0,19.0,83,0.00,,,0.00,meteohub,2013-08-05 01:23:00,
2013-08-04 21:29:00,52.0,46.9,29.98,North,5,21.0,21.0,83,0.00,,,0.00,meteohub,2013-08-05 01:29:00,
2013-08-04 21:34:00,52.0,46.9,29.97,NW,317,15.0,22.0,83,0.00,,,0.00,meteohub,2013-08-05 01:34:00,
2013-08-04 21:39:00,51.8,47.1,29.97,NNW,331,15.0,23.0,84,0.00,,,0.00,meteohub,2013-08-05 01:39:00,
2013-08-04 21:44:00,51.8,47.1,29.97,WNW,287,9.0,23.0,84,0.00,,,0.00,meteohub,2013-08-05 01:44:00,
2013-08-04 21:50:00,51.6,46.9,29.97,West,271,7.0,23.0,84,0.00,,,0.00,meteohub,2013-08-05 01:50:00,
2013-08-04 21:55:00,51.6,46.9,29.98,NW,306,5.0,22.0,84,0.00,,,0.00,meteohub,2013-08-05 01:55:00,
2013-08-04 22:00:00,51.4,47.1,29.98,West,274,12.0,19.0,85,0.00,,,0.00,meteohub,2013-08-05 02:00:00,
2013-08-04 22:05:00,51.3,46.9,29.98,WNW,296,13.0,22.0,85,0.00,,,0.00,meteohub,2013-08-05 02:05:00,
2013-08-04 22:10:00,51.3,46.9,29.98,NW,305,15.0,22.0,85,0.00,,,0.00,meteohub,2013-08-05 02:10:00,
2013-08-04 22:15:00,51.3,46.9,29.98,WNW,298,7.0,22.0,85,0.00,,,0.00,meteohub,2013-08-05 02:15:00,
2013-08-04 22:21:00,51.1,47.1,29.99,NNW,329,16.0,20.0,86,0.00,,,0.00,meteohub,2013-08-05 02:21:00,
2013-08-04 22:26:00,51.1,47.1,29.99,NNW,333,13.0,16.0,86,0.00,,,0.00,meteohub,2013-08-05 02:26:00,
2013-08-04 22:31:00,51.1,47.1,29.99,NNW,329,13.0,20.0,86,0.00,,,0.00,meteohub,2013-08-05 02:31:00,
2013-08-04 22:36:00,50.7,46.8,29.99,NNW,346,10.0,20.0,86,0.00,,,0.00,meteohub,2013-08-05 02:36:00,
2013-08-04 22:42:00,50.5,46.8,29.99,NW,315,9.0,20.0,87,0.00,,,0.00,meteohub,2013-08-05 02:42:00,
2013-08-04 22:47:00,50.5,46.8,30.00,NNW,329,7.0,20.0,87,0.00,,,0.00,meteohub,2013-08-05 02:47:00,
2013-08-04 22:52:00,50.4,46.9,30.00,NNW,329,8.0,20.0,88,0.00,,,0.00,meteohub,2013-08-05 02:52:00,
2013-08-04 22:57:00,50.4,46.9,29.99,NW,313,7.0,20.0,88,0.00,,,0.00,meteohub,2013-08-05 02:57:00,
2013-08-04 23:02:00,50.4,46.9,29.99,WNW,301,14.0,18.0,88,0.00,,,0.00,meteohub,2013-08-05 03:02:00,
2013-08-04 23:07:00,50.2,47.1,29.99,NW,317,11.0,19.0,89,0.00,,,0.00,meteohub,2013-08-05 03:07:00,
2013-08-04 23:12:00,50.2,47.1,29.99,NW,316,11.0,19.0,89,0.00,,,0.00,meteohub,2013-08-05 03:12:00,
2013-08-04 23:18:00,50.2,47.1,29.99,WSW,254,13.0,19.0,89,0.00,,,0.00,meteohub,2013-08-05 03:18:00,
2013-08-04 23:23:00,50.2,47.1,30.00,NNW,342,13.0,21.0,89,0.00,,,0.00,meteohub,2013-08-05 03:23:00,
2013-08-04 23:28:00,50.2,47.1,29.99,NW,325,13.0,21.0,89,0.00,,,0.00,meteohub,2013-08-05 03:28:00,
2013-08-04 23:34:00,50.2,47.1,29.99,NW,325,13.0,21.0,89,0.00,,,0.00,meteohub,2013-08-05 03:34:00,
2013-08-04 23:39:00,50.4,47.3,29.99,North,-999,-999.0,20.0,89,0.00,,,0.00,meteohub,2013-08-05 03:39:00,
2013-08-04 23:44:00,50.2,46.8,29.99,WNW,300,12.0,20.0,88,0.00,,,0.00,meteohub,2013-08-05 03:44:00,
2013-08-04 23:49:00,50.4,46.9,30.00,NNW,336,10.0,18.0,88,0.00,,,0.00,meteohub,2013-08-05 03:49:00,
2013-08-04 23:55:00,50.4,46.9,30.00,NW,312,12.0,19.0,88,0.00,,,0.00,meteohub,2013-08-05 03:55:00,